TimeMST,TemperatureF,Dew PointF,Humidity,Sea Level PressureIn,VisibilityMPH,Wind Direction,Wind SpeedMPH,Gust SpeedMPH,PrecipitationIn,Events,Conditions,WindDirDegrees,DateUTC
12:15 AM,17.6,13.3,83,30.26,10.0,North,3.5,-,N/A,,Clear,360,2013-02-01 07:15:00
12:35 AM,19.4,14.7,82,30.26,10.0,NNW,3.5,-,N/A,,Clear,340,2013-02-01 07:35:00
1:15 AM,20.5,14.7,78,30.25,10.0,NW,4.6,-,N/A,,Clear,310,2013-02-01 08:15:00
1:35 AM,18.7,14.0,82,30.25,10.0,NNW,3.5,-,N/A,,Clear,330,2013-02-01 08:35:00
1:55 AM,17.6,13.3,83,30.26,10.0,NW,5.8,-,N/A,,Clear,310,2013-02-01 08:55:00
2:15 AM,17.1,12.7,83,30.26,10.0,Calm,Calm,-,N/A,,Clear,0,2013-02-01 09:15:00
2:35 AM,15.4,11.7,85,30.26,10.0,NE,3.5,-,N/A,,Clear,50,2013-02-01 09:35:00
2:55 AM,16.7,11.8,81,30.27,10.0,South,3.5,-,N/A,,Clear,190,2013-02-01 09:55:00
3:15 AM,17.8,13.5,83,30.26,10.0,South,4.6,-,N/A,,Clear,170,2013-02-01 10:15:00
3:35 AM,15.4,11.3,84,30.25,10.0,Calm,Calm,-,N/A,,Clear,0,2013-02-01 10:35:00
3:55 AM,16.3,11.7,82,30.25,10.0,Calm,Calm,-,N/A,,Clear,0,2013-02-01 10:55:00
4:15 AM,15.1,10.4,82,30.24,10.0,Calm,Calm,-,N/A,,Clear,0,2013-02-01 11:15:00
4:35 AM,12.9,9.3,86,30.24,10.0,North,3.5,-,N/A,,Clear,350,2013-02-01 11:35:00
4:55 AM,13.3,9.9,86,30.23,10.0,NNE,4.6,-,N/A,,Clear,30,2013-02-01 11:55:00
5:15 AM,14.0,9.9,84,30.23,10.0,Calm,Calm,-,N/A,,Clear,0,2013-02-01 12:15:00
5:35 AM,13.6,9.9,85,30.23,10.0,Calm,Calm,-,N/A,,Clear,0,2013-02-01 12:35:00
5:55 AM,14.2,10.6,86,30.22,10.0,ENE,5.8,-,N/A,,Clear,70,2013-02-01 12:55:00
6:15 AM,17.1,13.5,86,30.22,10.0,Calm,Calm,-,N/A,,Clear,0,2013-02-01 13:15:00
6:35 AM,17.6,10.9,75,30.23,10.0,Calm,Calm,-,N/A,,Clear,0,2013-02-01 13:35:00
6:55 AM,14.2,10.8,86,30.23,10.0,Calm,Calm,-,N/A,,Clear,0,2013-02-01 13:55:00
7:15 AM,14.0,10.0,84,30.23,10.0,NNE,3.5,-,N/A,,Clear,20,2013-02-01 14:15:00
7:35 AM,15.8,10.9,81,30.23,10.0,North,6.9,-,N/A,,Clear,360,2013-02-01 14:35:00
8:15 AM,30.6,22.8,73,30.23,10.0,WNW,9.2,-,N/A,,Clear,300,2013-02-01 15:15:00
8:35 AM,38.1,20.1,48,30.23,10.0,WNW,15.0,20.7,N/A,,Clear,290,2013-02-01 15:35:00
8:55 AM,39.6,20.5,46,30.23,10.0,WNW,10.4,-,N/A,,Clear,300,2013-02-01 15:55:00
9:15 AM,41.5,18.5,40,30.24,10.0,West,13.8,18.4,N/A,,Clear,280,2013-02-01 16:15:00
9:35 AM,42.6,17.8,37,30.24,10.0,West,17.3,-,N/A,,Clear,280,2013-02-01 16:35:00
9:55 AM,43.9,16.7,34,30.24,10.0,WNW,16.1,-,N/A,,Clear,300,2013-02-01 16:55:00
10:15 AM,44.8,16.9,33,30.25,10.0,WNW,17.3,-,N/A,,Clear,300,2013-02-01 17:15:00
10:35 AM,45.7,17.1,32,30.25,10.0,NW,17.3,-,N/A,,Clear,310,2013-02-01 17:35:00
10:55 AM,46.8,16.0,29,30.25,10.0,WNW,17.3,-,N/A,,Clear,300,2013-02-01 17:55:00
11:15 AM,48.0,15.6,27,30.25,10.0,WNW,16.1,-,N/A,,Clear,300,2013-02-01 18:15:00
11:35 AM,49.1,14.0,25,30.23,10.0,WNW,15.0,24.2,N/A,,Clear,290,2013-02-01 18:35:00
11:55 AM,49.8,14.0,24,30.23,10.0,WNW,15.0,21.9,N/A,,Clear,300,2013-02-01 18:55:00
12:15 PM,50.7,14.7,24,30.21,10.0,NW,13.8,-,N/A,,Clear,310,2013-02-01 19:15:00
12:35 PM,51.1,14.2,23,30.19,10.0,WNW,16.1,23.0,N/A,,Clear,290,2013-02-01 19:35:00
12:55 PM,51.8,14.9,23,30.18,10.0,WNW,13.8,-,N/A,,Clear,300,2013-02-01 19:55:00
1:15 PM,52.9,13.5,21,30.17,10.0,NW,11.5,19.6,N/A,,Clear,320,2013-02-01 20:15:00
1:35 PM,53.4,14.9,22,30.17,10.0,NW,4.6,-,N/A,,Clear,320,2013-02-01 20:35:00
1:55 PM,54.7,11.7,18,30.16,10.0,NW,11.5,-,N/A,,Clear,310,2013-02-01 20:55:00
2:15 PM,55.4,9.7,16,30.16,10.0,NW,17.3,25.3,N/A,,Clear,320,2013-02-01 21:15:00
2:35 PM,55.4,8.6,15,30.16,10.0,NW,20.7,25.3,N/A,,Clear,310,2013-02-01 21:35:00
2:55 PM,54.5,8.6,16,30.16,10.0,NW,23.0,29.9,N/A,,Clear,310,2013-02-01 21:55:00
3:15 PM,53.6,8.6,16,30.16,10.0,NW,20.7,31.1,N/A,,Clear,310,2013-02-01 22:15:00
3:35 PM,53.6,9.0,17,30.16,10.0,NW,20.7,25.3,N/A,,Clear,310,2013-02-01 22:35:00
3:55 PM,53.2,10.8,18,30.17,10.0,NW,20.7,28.8,N/A,,Clear,320,2013-02-01 22:55:00
4:15 PM,52.2,12.2,20,30.17,10.0,NW,16.1,-,N/A,,Clear,310,2013-02-01 23:15:00
4:35 PM,51.3,16.0,25,30.18,10.0,West,10.4,-,N/A,,Clear,260,2013-02-01 23:35:00
4:55 PM,50.0,16.0,26,30.18,10.0,WNW,9.2,-,N/A,,Clear,290,2013-02-01 23:55:00
5:15 PM,47.1,14.9,28,30.18,10.0,WNW,9.2,-,N/A,,Clear,290,2013-02-02 00:15:00
5:35 PM,42.8,14.4,32,30.18,10.0,WNW,11.5,-,N/A,,Clear,290,2013-02-02 00:35:00
5:55 PM,44.6,10.6,25,30.19,10.0,WNW,15.0,-,N/A,,Clear,300,2013-02-02 00:55:00
6:15 PM,45.7,7.7,21,30.19,10.0,WNW,18.4,26.5,N/A,,Clear,290,2013-02-02 01:15:00
6:35 PM,43.9,6.8,22,30.20,10.0,WNW,13.8,-,N/A,,Clear,300,2013-02-02 01:35:00
6:55 PM,41.9,8.1,25,30.21,10.0,West,15.0,-,N/A,,Clear,280,2013-02-02 01:55:00
7:15 PM,41.9,10.6,28,30.22,10.0,West,12.7,-,N/A,,Clear,280,2013-02-02 02:15:00
7:35 PM,41.0,12.2,31,30.23,10.0,WNW,11.5,-,N/A,,Clear,290,2013-02-02 02:35:00
7:55 PM,38.3,12.0,34,30.23,10.0,NNE,5.8,-,N/A,,Clear,30,2013-02-02 02:55:00
8:15 PM,40.1,12.4,32,30.23,10.0,NE,3.5,-,N/A,,Clear,50,2013-02-02 03:15:00
8:35 PM,41.0,11.1,29,30.24,10.0,North,6.9,-,N/A,,Clear,360,2013-02-02 03:35:00
8:55 PM,42.6,9.7,26,30.25,10.0,NNW,8.1,-,N/A,,Clear,330,2013-02-02 03:55:00
9:15 PM,37.6,10.4,33,30.25,10.0,NNW,11.5,-,N/A,,Clear,330,2013-02-02 04:15:00
9:35 PM,36.7,11.8,36,30.26,10.0,NNW,12.7,-,N/A,,Clear,330,2013-02-02 04:35:00
9:55 PM,34.9,12.6,40,30.26,10.0,NW,11.5,-,N/A,,Clear,320,2013-02-02 04:55:00
10:15 PM,34.7,10.9,37,30.27,10.0,NW,5.8,-,N/A,,Clear,320,2013-02-02 05:15:00
10:35 PM,35.6,10.2,35,30.28,10.0,Calm,Calm,-,N/A,,Clear,0,2013-02-02 05:35:00
10:55 PM,36.7,9.3,32,30.28,10.0,NNW,3.5,-,N/A,,Clear,330,2013-02-02 05:55:00
11:15 PM,37.6,9.5,31,30.28,10.0,North,8.1,-,N/A,,Clear,10,2013-02-02 06:15:00
11:35 PM,32.2,13.3,46,30.28,10.0,NNE,8.1,-,N/A,,Clear,20,2013-02-02 06:35:00
11:55 PM,31.5,15.1,51,30.28,10.0,North,8.1,-,N/A,,Clear,10,2013-02-02 06:55:00